CAPE
0 0 0 0 0 0 2 23 23 14 4 9 24 20 32 53 4 0 1 2 0 0 0 2 14 18 5 9 85 148 206 145 131 234 267 143 23 3
0 0 0 0 0 0 1 9 8 13 8 2 6 5 12 28 28 19 0 0 0 1 1 0 5 5 0 8 7 61 133 146 105 214 242 97 5 2
0 0 0 0 0 0 0 0 0 5 7 1 2 3 8 14 13 31 5 0 0 0 2 9 14 2 1 0 5 22 99 138 87 166 220 65 10 6
0 0 0 0 0 0 0 0 0 0 17 11 0 1 6 13 13 20 22 45 10 0 9 4 0 3 5 0 0 7 6 56 90 112 118 18 13 6
0 0 5 0 0 0 0 5 0 0 0 1 12 1 1 8 27 40 30 27 32 16 0 0 0 0 0 6 15 16 11 20 30 9 1 2 10 8
0 1 0 0 0 0 3 0 0 0 1 1 3 7 8 6 19 17 18 28 13 2 0 0 0 0 1 1 12 5 7 1 0 1 1 1 1 0
0 0 0 0 0 0 4 0 0 0 4 1 4 8 5 7 15 17 14 10 8 10 3 0 0 1 1 1 1 1 0 0 1 3 3 3 3 2
0 0 0 0 0 0 0 0 0 3 2 6 7 8 6 9 7 14 9 8 0 3 10 0 0 0 0 2 1 0 1 1 2 4 6 6 3 5
0 0 0 0 0 1 0 4 1 1 1 3 11 10 10 8 7 6 2 3 5 3 3 3 0 0 0 0 1 1 1 1 3 9 6 5 4 6
0 0 0 0 3 7 9 4 0 0 0 0 11 21 21 11 19 14 18 5 3 2 0 1 0 0 0 0 1 1 3 4 4 5 4 5 6 6
0 0 1 1 5 11 15 13 1 0 0 15 10 11 16 5 6 4 6 4 0 2 0 0 0 0 2 1 1 3 4 3 4 6 7 6 8 10
9 3 0 0 6 17 16 10 5 11 15 4 1 1 5 2 5 3 2 2 2 2 0 0 0 0 0 0 0 5 3 7 5 5 6 12 14 1
2 2 0 10 24 8 10 1 14 16 12 3 3 2 2 4 0 0 0 1 2 2 0 1 2 1 0 1 0 0 0 2 2 3 13 16 9 1
13 10 9 7 6 9 4 3 1 1 2 2 2 3 6 1 1 0 0 1 1 1 1 0 0 0 0 2 0 0 0 0 0 0 0 6 15 5
21 11 3 0 2 0 0 7 9 0 6 3 3 3 5 1 0 0 0 1 0 0 0 1 0 1 0 1 0 0 0 0 0 0 0 0 0 0
5 0 0 0 0 0 0 2 1 2 1 1 3 1 2 1 0 0 0 0 0 0 0 0 0 0 0 0 0 0 0 0 0 0 0 0 0 0
0 0 0 0 0 1 1 4 1 1 2 1 0 1 0 1 0 0 0 0 0 0 0 0 0 0 0 0 0 0 0 0 0 0 0 0 0 0
0 0 0 2 2 2 3 1 1 0 0 0 0 0 0 0 0 0 0 0 0 0 0 0 0 0 0 0 0 0 0 0 0 0 0 0 0 0
0 0 0 2 3 3 1 1 0 0 0 0 0 0 0 0 0 0 0 0 0 0 0 0 0 0 0 0 0 0 0 0 0 0 0 0 0 0
1 1 2 2 2 0 0 1 0 0 0 0 0 0 0 0 0 0 0 0 0 0 0 0 0 0 0 0 0 0 0 0 0 0 0 0 0 0
1 0 1 2 1 0 1 0 0 0 0 0 0 0 0 0 0 0 0 0 0 0 0 0 0 0 0 0 0 0 0 0 0 0 0 0 0 0
0 0 1 1 0 0 1 0 0 0 0 0 0 0 0 0 0 0 0 0 0 0 0 0 0 0 0 0 0 0 0 0 0 0 0 0 0 0
0 0 1 0 0 0 0 0 0 0 0 0 0 0 0 0 0 0 0 0 0 0 0 0 0 0 0 0 0 0 0 0 0 0 0 0 0 0
CIN
0 0 0 0 0 0 -1 -1 0 0 0 -1 -1 -3 -5 -7 -3 0 -123 -213 0 0 0 -130 -148 -139 -119 -88 -32 -12 -6 -12 -15 -7 -5 -9 -53 0
0 0 0 0 0 0 -1 -1 -1 0 0 0 0 -2 -3 -5 -10 -21 0 0 0 -81 -70 0 -123 -100 -39 -94 -93 -52 -18 -10 -12 -4 -3 -8 -23 0
0 0 0 0 0 0 0 0 0 0 -1 0 -1 -2 -3 -3 -4 -8 -16 0 0 0 -46 -116 -115 -97 -80 -49 -96 -77 -36 -18 -10 -4 0 -4 -15 0
0 0 0 0 0 0 0 0 0 0 0 0 0 -1 -1 -2 -5 -5 -7 -9 -27 0 -55 -75 -7 -98 -69 0 -28 -82 -69 -38 -18 -8 0 -17 0 0
0 0 -3 0 0 0 0 -1 0 0 0 0 0 -2 -5 -1 -1 -2 -3 -10 -18 -11 -5 0 0 0 0 -26 -35 -37 -54 -45 -17 -20 0 0 0 0
0 -2 0 0 0 0 -1 0 0 0 -1 0 0 0 -1 -1 -1 -1 -1 -3 -7 -30 -20 0 0 0 0 -5 -38 -22 -17 -27 0 0 0 0 0 0
0 0 0 0 0 0 -2 0 0 0 0 0 0 0 0 0 -1 0 0 -3 -4 -3 -20 0 0 0 0 0 0 -23 -1 0 0 0 0 0 0 0
0 0 0 0 0 0 0 0 0 -1 0 0 0 0 0 0 -1 -1 0 0 0 -5 -19 0 0 0 0 0 0 0 -8 0 0 0 0 0 0 0
0 0 0 0 0 -2 -1 -2 -2 -2 -1 -1 0 0 0 0 0 0 0 0 0 0 -1 0 0 0 0 0 0 0 0 0 0 0 0 0 0 0
0 0 0 0 -2 -2 -3 -1 -1 0 0 0 0 0 -1 -1 0 0 0 0 0 0 0 0 0 0 0 0 0 0 0 0 0 0 0 0 0 0
0 0 -6 -3 -3 -3 -3 -2 -3 0 0 -1 0 0 0 0 0 0 0 0 0 0 0 0 0 0 0 0 0 0 0 0 0 0 0 0 0 0
-4 -5 -1 -2 -3 -2 -3 -1 -2 -3 0 -1 -2 0 0 0 0 0 0 0 0 0 0 0 0 0 0 0 0 -2 0 0 0 0 0 0 0 -3
0 -1 -1 -2 -2 -3 -4 -3 -1 -1 -2 -2 0 0 -2 -1 0 -1 0 0 0 0 0 0 0 0 0 0 0 0 0 0 0 0 0 0 -1 -1
-1 -1 -1 -4 -3 -2 -4 -3 -6 -4 -1 0 0 0 0 0 0 0 0 0 0 0 0 0 0 0 0 0 0 0 0 0 0 0 0 -1 -1 -2
-1 -2 -4 -1 -2 -1 -2 -2 -2 -1 0 0 0 0 0 -1 0 0 0 0 0 0 0 0 0 0 0 0 0 0 0 0 0 0 0 0 0 0
-4 0 0 0 -2 0 0 -1 -2 -1 -1 0 0 0 0 0 0 0 0 0 0 0 0 0 0 0 0 0 0 0 0 0 0 0 0 0 0 0
-4 0 0 -1 -1 -1 -1 -1 -1 -1 0 0 0 -1 0 0 0 0 0 0 0 0 0 0 0 0 0 0 0 0 0 0 0 0 0 0 0 0
0 0 0 -1 0 0 0 0 0 0 0 0 0 0 0 0 0 0 0 0 0 0 0 0 0 0 0 0 0 0 0 0 0 0 0 0 0 0
0 0 0 -1 -1 0 0 -1 -1 0 0 0 -1 -1 0 0 0 0 0 0 0 0 0 0 0 0 0 0 0 0 0 0 0 0 0 0 0 0
-1 -1 -1 -1 -1 0 0 -1 0 0 0 0 -1 0 0 0 0 0 0 0 0 0 0 0 0 0 0 0 0 0 0 0 0 0 0 0 0 0
-1 -1 -1 -1 -1 -1 -1 -1 0 0 0 0 0 0 0 0 0 0 0 0 0 0 0 0 0 0 0 0 0 0 0 0 0 0 0 0 0 0
-1 -1 -1 -1 -1 -2 -1 0 0 0 0 0 0 0 0 0 0 0 0 0 0 0 0 0 0 0 0 0 0 0 0 0 0 0 0 0 0 0
0 -1 -1 -1 0 -1 0 0 0 0 0 0 0 0 0 0 0 0 0 0 0 0 0 0 0 0 0 0 0 0 0 0 0 0 0 0 0 0
Wind_Speed
47 46 46 47 45 44 45 45 50 59 60 53 50 46 45 45 44 45 44 43 42 40 39 39 38 37 38 39 39 35 33 33 32 30 27 26 25 21
46 49 48 47 46 45 45 46 46 50 59 53 51 49 49 49 49 47 46 45 45 44 41 41 40 42 40 39 39 39 36 35 33 32 29 27 27 23
50 50 49 47 46 46 46 47 48 49 55 60 52 50 50 49 50 47 46 46 48 47 46 47 44 40 36 39 37 42 39 36 34 32 30 28 27 24
50 50 47 44 46 45 46 48 49 48 50 55 57 53 49 48 47 47 47 44 44 47 47 46 45 45 43 43 45 38 38 37 35 32 31 30 29 26
48 47 44 45 46 47 48 47 48 50 50 52 55 52 53 50 50 47 47 44 42 42 47 48 50 51 52 54 55 42 43 37 34 32 30 29 27 28
45 42 43 44 47 49 48 48 51 52 51 52 53 54 52 52 51 51 51 44 43 43 43 45 48 51 52 52 53 44 37 35 34 32 33 31 28 28
48 46 46 47 49 47 48 53 53 52 52 53 54 53 55 54 52 52 54 52 52 43 46 46 48 46 47 46 47 45 37 35 35 32 30 28 28 25
53 53 50 53 52 52 53 54 53 54 55 53 54 54 56 53 53 52 54 54 59 47 43 45 43 48 46 43 41 38 34 31 31 29 27 23 25 23
53 55 56 53 55 54 57 56 54 53 51 53 54 53 56 52 53 54 53 52 54 54 49 54 44 49 46 42 45 27 27 26 26 23 23 21 19 22
53 53 53 54 52 55 57 57 55 54 52 49 48 50 53 55 52 51 56 55 54 52 42 55 45 48 40 36 34 21 19 21 21 21 20 20 18 20
52 50 51 52 53 56 57 57 57 54 49 47 51 53 52 55 53 50 49 48 53 50 38 42 40 40 37 33 28 16 17 15 16 18 18 18 17 15
50 49 50 51 54 55 56 55 52 48 47 51 50 50 48 48 48 42 44 48 49 52 36 33 35 33 37 33 20 15 15 15 13 15 14 14 14 14
50 50 49 52 53 57 54 49 48 51 50 48 48 48 47 44 43 42 41 41 45 47 43 32 33 33 31 28 22 17 16 15 14 13 12 12 12 13
47 47 48 55 56 54 51 50 50 48 44 45 45 45 46 45 44 43 41 39 40 42 43 34 38 26 29 26 23 20 15 12 13 13 10 10 11 10
42 47 54 54 52 50 49 48 45 43 42 42 43 44 44 44 43 41 38 34 33 31 31 29 27 23 22 20 18 13 9 14 13 11 10 10 11 10
39 46 52 51 46 49 45 43 40 39 37 39 41 40 40 38 37 34 32 31 28 26 23 19 15 13 12 10 7 6 7 12 11 11 11 12 11 10
51 49 50 46 47 46 42 39 35 34 35 37 36 36 37 35 32 28 29 27 19 18 16 12 9 7 6 4 2 4 6 9 8 10 10 10 11 10
47 47 48 47 46 42 36 33 32 34 34 34 33 35 34 30 28 27 24 22 13 12 10 9 8 6 6 7 6 2 7 7 7 6 8 9 10 10
41 41 42 46 41 34 30 29 30 31 31 31 31 31 29 27 25 22 20 14 11 9 8 10 10 11 7 7 11 11 7 8 6 7 8 10 12 10
36 38 31 35 32 29 28 27 29 28 28 30 29 27 24 21 20 19 14 9 6 7 7 9 10 11 10 11 11 11 11 7 8 9 11 12 13 14
43 40 29 29 29 28 27 27 27 27 29 29 24 20 18 17 15 10 7 4 5 7 9 11 13 13 13 14 13 13 13 11 11 11 13 13 13 13
37 30 29 29 27 27 26 25 26 28 27 22 16 13 12 11 8 8 5 6 8 10 12 14 15 16 16 16 15 15 15 14 12 9 8 11 12 13
30 28 28 28 28 27 25 24 27 25 21 15 12 8 7 6 5 6 9 11 13 14 15 16 17 17 17 16 16 17 16 15 14 12 10 4 4 9
Wind_Direction
317 316 315 314 312 311 309 307 305 302 301 303 302 303 301 300 297 294 292 290 287 284 283 283 283 280 278 276 272 268 266 263 260 260 251 246 247 246
319 317 315 314 313 312 311 310 308 305 301 303 303 303 302 300 298 295 293 291 289 286 285 284 280 283 279 275 272 269 267 263 261 259 248 245 249 248
319 318 316 316 314 314 313 311 309 308 303 301 304 304 303 302 299 297 295 293 291 289 286 284 283 281 277 275 270 271 268 263 257 256 244 243 243 246
320 319 318 319 317 317 316 312 310 310 308 305 303 304 303 303 302 300 298 296 293 291 289 288 285 283 281 278 275 269 265 263 255 247 243 242 241 249
323 321 321 321 319 319 317 315 314 311 309 306 303 304 303 304 303 301 299 299 295 294 291 289 286 285 281 275 276 271 268 259 249 237 238 243 247 250
326 325 324 322 320 318 317 316 315 313 310 308 306 304 303 302 301 301 298 298 299 297 294 292 289 286 281 277 276 271 261 255 247 240 241 241 241 254
324 323 321 320 319 318 316 315 314 312 310 308 306 305 302 301 300 300 297 296 294 295 293 292 290 288 283 285 278 276 259 252 251 248 241 238 249 247
321 320 320 319 317 315 313 312 311 310 307 306 304 303 301 302 300 299 297 296 291 296 294 291 291 286 287 285 284 282 261 251 246 242 240 240 243 246
322 320 318 319 318 315 313 311 309 308 306 304 301 301 300 301 300 298 297 295 292 291 293 288 290 285 285 287 280 275 265 248 240 243 237 242 242 247
322 321 320 320 320 318 315 312 311 309 306 304 302 303 300 299 299 297 295 294 291 290 293 285 290 286 287 284 283 269 252 245 244 244 241 242 247 248
322 323 322 321 321 319 317 314 311 309 308 305 303 302 300 298 297 298 296 295 291 290 294 291 291 289 283 286 278 267 247 241 243 249 247 242 241 238
325 325 324 323 321 320 319 316 314 314 311 306 304 304 304 301 297 301 300 295 293 288 291 288 290 284 279 278 283 268 258 244 250 251 235 228 225 243
328 327 326 323 320 318 318 320 316 311 307 307 302 303 303 303 302 303 303 300 290 278 280 287 283 276 280 280 282 274 256 257 252 239 227 219 228 248
332 330 327 319 316 316 319 314 311 310 310 303 299 298 298 298 300 302 303 294 279 264 268 278 269 279 273 274 281 268 263 252 241 236 237 240 242 242
337 330 316 313 315 317 314 309 309 308 302 296 296 295 297 294 290 290 287 280 288 298 294 284 283 277 276 279 275 258 230 243 246 240 247 253 262 268
340 333 322 320 327 319 312 313 306 298 292 291 292 289 289 284 277 273 267 276 301 308 313 311 301 291 293 288 268 208 235 251 247 256 261 268 273 279
322 330 327 332 327 322 310 302 294 294 293 293 289 288 287 282 273 263 270 290 324 319 315 324 334 340 346 320 293 234 248 277 259 264 277 280 283 282
336 333 331 330 317 308 298 293 292 296 293 292 287 289 285 277 269 266 255 288 330 324 331 305 302 303 290 308 302 308 296 305 302 289 296 293 294 295
341 342 339 317 306 298 291 289 292 293 291 292 289 288 282 275 263 251 278 312 313 309 297 277 270 267 307 325 310 317 331 324 321 310 307 306 306 304
346 345 296 299 296 292 290 290 293 294 294 295 292 286 276 261 252 264 298 305 304 292 296 292 313 324 336 337 338 333 337 346 333 323 317 316 312 310
328 324 294 293 292 290 289 291 294 295 297 296 289 282 271 258 269 324 323 328 310 319 339 344 335 342 351 351 348 344 340 332 329 323 318 314 314 311
301 293 293 293 290 290 291 293 296 299 299 292 285 273 264 272 314 4 327 300 321 351 8 6 356 351 350 350 345 344 343 343 342 333 328 328 331 321
293 291 292 292 292 291 292 295 298 298 294 283 276 257 230 213 245 331 354 1 9 9 3 360 357 357 359 359 357 353 355 357 354 356 358 13 30 3